STARLINK-30383, 57773

Orbit data source: Space-Track

STARLINK-30383, 57773 is a payload satellite in LEO that was launched on Mon, 04 Sep 2023 UTC via an FALCON 9 launch vehicle from the Air Force Eastern Test Range (AFETR). Payload-class satellites include a variety of spacecraft equipped with specific instruments for various scientific and technological missions. These include communications satellites like Starlink; space stations such as the ISS; scientific satellites like the Hubble; Earth observation satellites from companies like Planet Labs, Umbra, and HawkEye 360; GPS; miniature CubeSats for education and research; and military/defense satellites.

Loading next visibility...
Identifier
57773, 2023-134C
Orbit
LEO
Last TLE update
12 hours ago
Origin
Manufacturer
SpaceX/Seattle
Mission
Operational Commercial Communications
Bus & Motor
STARLINK V2M, Unknown motor
Mass
730 kg wet, ~700 kg dry
Launch date (UTC)
2023-09-04 (2 years ago)
Launch vehicle
FALCON 9
Launch site
Air Force Eastern Test Range (AFETR)
Object type
Payload
Rocket body
Debris
Shape & HBR
Box + 2 Pan, 29 m
Radar Cross Section
33.884 m², Large (>1 m²)

Expand to show TLE details & history

TLE from 12 hours ago
0 STARLINK-30383
1 57773U 23134C   25150.86821032 -.00000545  00000-0 -25308-4 0  9993
2 57773  43.0032 294.6187 0001206 264.9833  95.0871 15.02528250 96920
Epoch: 2025-05-30T20:50Z
TLE epoch observation values (Epoch: 2025-05-30T20:50:13.371Z)
Latitude
-0.00007°
Longitude
93.44613°
Altitude
558.956 km
Speed
7.584 km/s
True Right ascension
19h 38m 28s
True Declination
0° 00' 00"
Sunlit
Object was in full shadow at epoch
Visualization orbit readout
Latitude
-42.94647°
Longitude
-6.34028°
Altitude
571.55 km
Speed
7.576 km/s
Apparent Right ascension
09h 57m 46s
Apparent Declination
-51° 57' 51"
Sunlit
Object is in full shadow
Visualization observer readout
Local Sidereal Time
18:46:45
Azimuth
233.437° WSW
Elevation
-55.396°
Doppler factor
1
Orbital elements
Apogee altitude
561.864 km
Perigee altitude
560.19 km
Semi-major axis
6,939.164 km
Eccentricity
0.00012
Inclination
43.0032°
RAAN
294.6187°
Arg. of periapsis
264.9833°
True anomaly
Unknown
Mean anomaly
95.0871°
Eccentric anomaly
Unknown
Mean motion
3.75476 °/min
Orbital period
95.88 mins
BSTAR
-0.000025308
Loading maneuver chart data...
Loading SW <> Apogee altitude chart data...
Loading historical data...
Loading historical data...
Loading historical data...
Loading historical data...
Loading historical data...
Loading historical data...
Loading historical data...

STARLINK-30383 Visibility forecast

Observer location: undefined°, undefined°

Span
Click to sort rows by Start time (UTC) header in descending order
Start Az.
Max El. time (UTC)
Max El. Az.
Max El.
End time (UTC)
End Az.
7 mins2025-05-31 12:59:44.087Z224.125° SW2025-05-31 13:03:44.087Z136.051° SSE35.554°2025-05-31 13:06:44.087Z81.518° E
6 mins2025-05-31 14:41:44.087Z272.829° WNW2025-05-31 14:43:44.087Z322.039° NNW41.665°2025-05-31 14:47:44.087Z70.888° E
6 mins2025-05-31 16:22:44.087Z295.195° NW2025-05-31 16:24:44.087Z348.154° N40.352°2025-05-31 16:28:44.087Z87.004° E
7 mins2025-05-31 18:02:44.087Z281.07° WNW2025-05-31 18:05:44.087Z204.266° SW41.032°2025-05-31 18:09:44.087Z125.457° SE
|